Time,TemperatureF,DewpointF,PressureIn,WindDirection,WindDirectionDegrees,WindSpeedMPH,WindSpeedGustMPH,Humidity,HourlyPrecipIn,Conditions,Clouds,dailyrainin,SoftwareType,DateUTC
2013-02-20 00:03:00,68.0,66.8,29.97,SW,225,3.2,-999.0,96,-99.99,,,0.00,Acu-Link.com,2013-02-20 05:03:00,
2013-02-20 00:18:00,67.8,66.6,29.96,SSW,202,0.0,-999.0,96,-99.99,,,0.00,Acu-Link.com,2013-02-20 05:18:00,
2013-02-20 00:33:00,67.5,66.6,29.95,SSW,202,1.1,-999.0,97,-99.99,,,0.00,Acu-Link.com,2013-02-20 05:33:00,
2013-02-20 00:48:00,66.9,66.3,29.94,SSW,202,0.0,-999.0,98,-99.99,,,0.00,Acu-Link.com,2013-02-20 05:48:00,
2013-02-20 01:04:00,66.9,66.3,29.94,SSW,202,0.0,-999.0,98,-99.99,,,0.00,Acu-Link.com,2013-02-20 06:04:00,
2013-02-20 01:19:00,66.9,66.3,29.93,SSW,202,0.0,-999.0,98,-99.99,,,0.00,Acu-Link.com,2013-02-20 06:19:00,
2013-02-20 01:34:00,66.9,66.3,29.93,SSW,202,0.0,-999.0,98,-99.99,,,0.00,Acu-Link.com,2013-02-20 06:34:00,
2013-02-20 01:49:00,66.7,66.1,29.94,SSW,202,0.0,-999.0,98,-99.99,,,0.00,Acu-Link.com,2013-02-20 06:49:00,
2013-02-20 02:04:00,66.7,66.4,29.94,SSW,202,0.0,-999.0,99,-99.99,,,0.00,Acu-Link.com,2013-02-20 07:04:00,
2013-02-20 02:19:00,66.9,66.6,29.94,SSW,202,0.0,-999.0,99,-99.99,,,0.00,Acu-Link.com,2013-02-20 07:19:00,
2013-02-20 02:34:00,66.9,66.6,29.93,West,270,2.7,-999.0,99,-99.99,,,0.00,Acu-Link.com,2013-02-20 07:34:00,
2013-02-20 02:49:00,66.9,66.6,29.93,WSW,247,2.2,-999.0,99,-99.99,,,0.00,Acu-Link.com,2013-02-20 07:49:00,
2013-02-20 03:20:00,66.7,66.4,29.92,WNW,292,2.7,-999.0,99,-99.99,,,0.00,Acu-Link.com,2013-02-20 08:20:00,
2013-02-20 03:35:00,66.4,66.1,29.91,WNW,292,0.0,-999.0,99,-99.99,,,0.00,Acu-Link.com,2013-02-20 08:35:00,
2013-02-20 03:50:00,66.0,65.7,29.91,WNW,292,0.0,-999.0,99,-99.99,,,0.00,Acu-Link.com,2013-02-20 08:50:00,
2013-02-20 04:18:00,65.7,65.4,29.91,West,270,0.0,-999.0,99,-99.99,,,0.00,Acu-Link.com,2013-02-20 09:18:00,
2013-02-20 04:33:00,65.5,65.2,29.92,WNW,292,0.0,-999.0,99,-99.99,,,0.00,Acu-Link.com,2013-02-20 09:33:00,
2013-02-20 04:48:00,65.5,65.2,29.92,NW,315,1.7,-999.0,99,-99.99,,,0.00,Acu-Link.com,2013-02-20 09:48:00,
2013-02-20 05:03:00,65.5,65.2,29.90,WNW,292,3.2,-999.0,99,-99.99,,,0.00,Acu-Link.com,2013-02-20 10:03:00,
2013-02-20 05:19:00,65.3,65.0,29.91,NNW,337,3.7,-999.0,99,-99.99,,,0.00,Acu-Link.com,2013-02-20 10:19:00,
2013-02-20 05:34:00,64.9,64.6,29.91,North,0,1.1,-999.0,99,-99.99,,,0.00,Acu-Link.com,2013-02-20 10:34:00,
2013-02-20 05:49:00,64.4,64.1,29.91,North,0,0.0,-999.0,99,-99.99,,,0.00,Acu-Link.com,2013-02-20 10:49:00,
2013-02-20 06:04:00,64.0,63.7,29.93,North,0,0.0,-999.0,99,-99.99,,,0.00,Acu-Link.com,2013-02-20 11:04:00,
2013-02-20 06:19:00,63.5,63.2,29.93,North,0,0.0,-999.0,99,-99.99,,,0.00,Acu-Link.com,2013-02-20 11:19:00,
2013-02-20 06:34:00,63.0,62.7,29.94,North,0,0.0,-999.0,99,-99.99,,,0.00,Acu-Link.com,2013-02-20 11:34:00,
2013-02-20 06:49:00,62.6,62.3,29.95,North,0,0.0,-999.0,99,-99.99,,,0.00,Acu-Link.com,2013-02-20 11:49:00,
2013-02-20 07:04:00,62.4,62.1,29.95,North,0,0.0,-999.0,99,-99.99,,,0.00,Acu-Link.com,2013-02-20 12:04:00,
2013-02-20 07:19:00,62.4,62.1,29.95,North,0,0.0,-999.0,99,-99.99,,,0.00,Acu-Link.com,2013-02-20 12:19:00,
2013-02-20 07:35:00,63.9,63.6,29.96,North,0,0.0,-999.0,99,-99.99,,,0.00,Acu-Link.com,2013-02-20 12:35:00,
2013-02-20 07:50:00,66.6,66.3,29.96,North,0,0.0,-999.0,99,-99.99,,,0.00,Acu-Link.com,2013-02-20 12:50:00,
2013-02-20 08:05:00,70.3,67.2,29.97,East,90,0.0,-999.0,90,-99.99,,,0.00,Acu-Link.com,2013-02-20 13:05:00,
2013-02-20 08:20:00,72.0,66.2,29.97,NNE,22,0.0,-999.0,82,-99.99,,,0.00,Acu-Link.com,2013-02-20 13:20:00,
2013-02-20 08:35:00,69.8,64.7,29.97,ENE,67,4.7,-999.0,84,-99.99,,,0.00,Acu-Link.com,2013-02-20 13:35:00,
2013-02-20 08:50:00,70.9,65.8,29.97,North,0,1.7,-999.0,84,-99.99,,,0.00,Acu-Link.com,2013-02-20 13:50:00,
2013-02-20 09:05:00,71.4,64.9,29.97,NNE,22,4.7,-999.0,80,-99.99,,,0.00,Acu-Link.com,2013-02-20 14:05:00,
2013-02-20 09:20:00,72.5,64.5,29.96,NE,45,3.7,-999.0,76,-99.99,,,0.00,Acu-Link.com,2013-02-20 14:20:00,
2013-02-20 09:35:00,73.4,62.6,29.97,NNW,337,4.7,-999.0,69,-99.99,,,0.00,Acu-Link.com,2013-02-20 14:35:00,
2013-02-20 09:51:00,75.0,62.0,29.96,NE,45,4.7,-999.0,64,-99.99,,,0.00,Acu-Link.com,2013-02-20 14:51:00,
2013-02-20 10:06:00,74.8,60.4,29.96,ENE,67,5.8,-999.0,61,-99.99,,,0.00,Acu-Link.com,2013-02-20 15:06:00,
2013-02-20 10:21:00,75.9,60.0,29.95,ENE,67,4.7,-999.0,58,-99.99,,,0.00,Acu-Link.com,2013-02-20 15:21:00,
2013-02-20 10:36:00,75.6,59.3,29.96,NNE,22,3.7,-999.0,57,-99.99,,,0.00,Acu-Link.com,2013-02-20 15:36:00,
2013-02-20 10:51:00,76.6,59.2,29.97,ESE,112,5.8,-999.0,55,-99.99,,,0.00,Acu-Link.com,2013-02-20 15:51:00,
2013-02-20 11:06:00,76.8,58.9,29.96,NNE,22,8.9,-999.0,54,-99.99,,,0.00,Acu-Link.com,2013-02-20 16:06:00,
2013-02-20 11:21:00,77.0,60.1,29.95,ESE,112,11.4,-999.0,56,-99.99,,,0.00,Acu-Link.com,2013-02-20 16:21:00,
2013-02-20 11:36:00,76.8,60.4,29.94,NE,45,4.7,-999.0,57,-99.99,,,0.00,Acu-Link.com,2013-02-20 16:36:00,
2013-02-20 11:51:00,77.4,61.0,29.95,ESE,112,5.3,-999.0,57,-99.99,,,0.00,Acu-Link.com,2013-02-20 16:51:00,
2013-02-20 12:07:00,76.5,62.0,29.94,NE,45,7.8,-999.0,61,-99.99,,,0.00,Acu-Link.com,2013-02-20 17:07:00,
2013-02-20 12:22:00,77.5,62.5,29.94,ENE,67,5.8,-999.0,60,-99.99,,,0.00,Acu-Link.com,2013-02-20 17:22:00,
2013-02-20 12:37:00,75.7,61.3,29.93,NE,45,5.8,-999.0,61,-99.99,,,0.00,Acu-Link.com,2013-02-20 17:37:00,
2013-02-20 12:52:00,78.1,62.6,29.94,NE,45,6.3,-999.0,59,-99.99,,,0.00,Acu-Link.com,2013-02-20 17:52:00,
2013-02-20 13:07:00,78.4,62.9,29.93,NE,45,3.7,-999.0,59,-99.99,,,0.00,Acu-Link.com,2013-02-20 18:07:00,
2013-02-20 13:22:00,77.2,62.2,29.92,ESE,112,6.3,-999.0,60,-99.99,,,0.00,Acu-Link.com,2013-02-20 18:22:00,
2013-02-20 13:38:00,77.2,63.2,29.91,East,90,4.7,-999.0,62,-99.99,,,0.00,Acu-Link.com,2013-02-20 18:38:00,
2013-02-20 13:53:00,76.8,63.2,29.89,ESE,112,8.3,-999.0,63,-99.99,,,0.00,Acu-Link.com,2013-02-20 18:53:00,
2013-02-20 14:08:00,76.1,63.5,29.89,ESE,112,8.3,-999.0,65,-99.99,,,0.00,Acu-Link.com,2013-02-20 19:08:00,
2013-02-20 14:23:00,77.5,63.9,29.90,ESE,112,9.4,-999.0,63,-99.99,,,0.00,Acu-Link.com,2013-02-20 19:23:00,
2013-02-20 14:38:00,76.1,64.3,29.88,SE,135,4.7,-999.0,67,-99.99,,,0.00,Acu-Link.com,2013-02-20 19:38:00,
2013-02-20 14:53:00,77.0,65.2,29.88,East,90,6.3,-999.0,67,-99.99,,,0.00,Acu-Link.com,2013-02-20 19:53:00,
2013-02-20 15:08:00,77.2,65.8,29.87,ESE,112,4.7,-999.0,68,-99.99,,,0.00,Acu-Link.com,2013-02-20 20:08:00,
2013-02-20 15:23:00,76.5,65.6,29.87,East,90,9.4,-999.0,69,-99.99,,,0.00,Acu-Link.com,2013-02-20 20:23:00,
2013-02-20 15:38:00,75.6,65.5,29.86,East,90,8.9,-999.0,71,-99.99,,,0.00,Acu-Link.com,2013-02-20 20:38:00,
2013-02-20 15:54:00,76.6,66.5,29.86,ESE,112,8.9,-999.0,71,-99.99,,,0.00,Acu-Link.com,2013-02-20 20:54:00,
2013-02-20 16:09:00,73.8,66.9,29.86,ESE,112,4.2,-999.0,79,-99.99,,,0.00,Acu-Link.com,2013-02-20 21:09:00,
2013-02-20 16:24:00,73.9,66.6,29.87,SSE,157,3.7,-999.0,78,-99.99,,,0.00,Acu-Link.com,2013-02-20 21:24:00,
2013-02-20 16:39:00,74.5,66.4,29.86,SSE,157,6.3,-999.0,76,-99.99,,,0.00,Acu-Link.com,2013-02-20 21:39:00,
2013-02-20 16:54:00,74.7,65.8,29.87,SE,135,6.8,-999.0,74,-99.99,,,0.00,Acu-Link.com,2013-02-20 21:54:00,
2013-02-20 17:09:00,74.3,65.8,29.88,ESE,112,6.8,-999.0,75,-99.99,,,0.00,Acu-Link.com,2013-02-20 22:09:00,
2013-02-20 17:25:00,74.5,65.7,29.87,ESE,112,6.3,-999.0,74,-99.99,,,0.00,Acu-Link.com,2013-02-20 22:25:00,
2013-02-20 17:40:00,73.8,65.7,29.88,ESE,112,5.3,-999.0,76,-99.99,,,0.00,Acu-Link.com,2013-02-20 22:40:00,
2013-02-20 17:55:00,72.9,65.6,29.89,SE,135,4.7,-999.0,78,-99.99,,,0.00,Acu-Link.com,2013-02-20 22:55:00,
2013-02-20 18:10:00,72.3,65.4,29.89,ESE,112,1.7,-999.0,79,-99.99,,,0.00,Acu-Link.com,2013-02-20 23:10:00,
2013-02-20 18:25:00,71.6,65.8,29.90,ESE,112,3.2,-999.0,82,-99.99,,,0.00,Acu-Link.com,2013-02-20 23:25:00,
2013-02-20 18:40:00,70.9,65.5,29.90,ESE,112,2.2,-999.0,83,-99.99,,,0.00,Acu-Link.com,2013-02-20 23:40:00,
2013-02-20 18:55:00,70.3,65.2,29.91,ESE,112,1.7,-999.0,84,-99.99,,,0.00,Acu-Link.com,2013-02-20 23:55:00,
2013-02-20 19:10:00,69.8,65.4,29.91,ESE,112,2.7,-999.0,86,-99.99,,,0.00,Acu-Link.com,2013-02-21 00:10:00,
2013-02-20 19:25:00,69.3,65.6,29.92,ESE,112,1.1,-999.0,88,-99.99,,,0.00,Acu-Link.com,2013-02-21 00:25:00,
2013-02-20 19:41:00,68.9,65.5,29.91,ESE,112,2.2,-999.0,89,-99.99,,,0.00,Acu-Link.com,2013-02-21 00:41:00,
2013-02-20 19:56:00,68.5,65.4,29.92,ESE,112,1.1,-999.0,90,-99.99,,,0.00,Acu-Link.com,2013-02-21 00:56:00,
2013-02-20 20:11:00,68.4,65.3,29.91,ESE,112,2.7,-999.0,90,-99.99,,,0.00,Acu-Link.com,2013-02-21 01:11:00,
2013-02-20 20:26:00,68.2,65.5,29.90,ESE,112,2.7,-999.0,91,-99.99,,,0.00,Acu-Link.com,2013-02-21 01:26:00,
2013-02-20 20:41:00,67.8,65.4,29.91,ESE,112,2.2,-999.0,92,-99.99,,,0.00,Acu-Link.com,2013-02-21 01:41:00,
2013-02-20 20:56:00,67.6,65.2,29.92,ESE,112,0.0,-999.0,92,-99.99,,,0.00,Acu-Link.com,2013-02-21 01:56:00,
2013-02-20 21:11:00,67.3,65.5,29.91,ESE,112,2.2,-999.0,94,-99.99,,,0.00,Acu-Link.com,2013-02-21 02:11:00,
2013-02-20 21:26:00,66.9,65.1,29.92,ESE,112,0.0,-999.0,94,-99.99,,,0.00,Acu-Link.com,2013-02-21 02:26:00,
2013-02-20 21:43:00,66.4,64.9,29.93,ESE,112,0.0,-999.0,95,-99.99,,,0.00,Acu-Link.com,2013-02-21 02:43:00,
2013-02-20 21:58:00,66.2,65.6,29.94,ESE,112,0.0,-999.0,98,-99.99,,,0.00,Acu-Link.com,2013-02-21 02:58:00,
2013-02-20 22:14:00,65.5,64.6,29.94,ESE,112,0.0,-999.0,97,-99.99,,,0.00,Acu-Link.com,2013-02-21 03:14:00,
2013-02-20 22:37:00,64.9,64.3,29.94,ESE,112,0.0,-999.0,98,-99.99,,,0.00,Acu-Link.com,2013-02-21 03:37:00,
2013-02-20 22:52:00,64.9,64.6,29.94,ESE,112,0.0,-999.0,99,-99.99,,,0.00,Acu-Link.com,2013-02-21 03:52:00,
2013-02-20 23:22:00,64.6,64.3,29.93,ESE,112,0.0,-999.0,99,-99.99,,,0.00,Acu-Link.com,2013-02-21 04:22:00,
2013-02-20 23:37:00,64.4,64.1,29.93,ESE,112,0.0,-999.0,99,-99.99,,,0.00,Acu-Link.com,2013-02-21 04:37:00,
2013-02-20 23:52:00,64.4,64.1,29.92,ESE,112,0.0,-999.0,99,-99.99,,,0.00,Acu-Link.com,2013-02-21 04:52:00,